950  
ASUS43 KMKX 271621  
RWRWI  
 
WISCONSIN REGIONAL WEATHER ROUNDUP  
NATIONAL WEATHER SERVICE MILWAUKEE/SULLIVAN WI  
1100 AM CDT THU APR 27 2017  
 
NOTE: "FAIR" INDICATES FEW OR NO CLOUDS BELOW 12,000 FEET WITH NO  
SIGNIFICANT WEATHER AND/OR S TO VISIBILITY
.  
 
WIZ001-002-006>008-014>016-023>028-271700-  
NORTHWEST WISCONSIN  
 
CITY SKY/WX TMP DP RH WIND PRES REMARKS
 
SUPERIOR ARPT CLOUDY 28 21 77 CALM 29.54S  
ASHLAND CLOUDY 27 23 85 NW9 29.49R WCI 18  
HAYWARD CLOUDY 27 22 81 NW6 29.48S WCI 20  
SIREN CLOUDY 28 23 81 NW9 29.54R WCI 19  
CUMBERLAND CLOUDY 30 27 86 W15 29.50R WCI 19  
RICE LAKE CLOUDY 30 26 84 W9 29.52S WCI 22  
CHETEK LGT SNOW 31 29 93 NW6 29.50S WCI 25  
LADYSMITH FLURRIES 31 26 82 W14 29.49R WCI 21  
EAU CLAIRE CLOUDY 34 28 79 NW13 29.50R WCI 25  
MENOMONIE CLOUDY 34 29 81 W12 29.52R WCI 25  
NEW RICHMOND CLOUDY 32 25 75 NW15 29.54R WCI 21  
OSCEOLA CLOUDY 30 25 81 NW9 29.58S WCI 22  

 
 
WIZ003>005-009-010-017-018-271700-  
NORTH CENTRAL WISCONSIN  
 
CITY SKY/WX TMP DP RH WIND PRES REMARKS
 
MANITOWISH WTR LGT SNOW 26 26 99 NW9 29.40R VSB 3/4 WCI 17  
ARBOR VITAE SNOW 29 28 93 NW13 29.38R VSB 1/2 WCI 19  
WOODRUFF SNOW 29 28 93 NW13 29.38R VSB 1/2 WCI 19  
RHINELANDER SNOW 31 29 92 NW7 29.38R VSB 1/2 WCI 24  
EAGLE RIVER SNOW 29 29 99 NW12 29.36S VSB 1/2 WCI 19  
LAND O LAKES LGT SNOW 28 26 91 NW8 29.38S WCI 20  
PHILLIPS LGT SNOW 27 26 94 NW7G17 29.42R VSB 3/4 WCI 20  
TOMAHAWK LGT SNOW 29 27 92 W9 29.41R VSB 3/4 WCI 21  
MEDFORD LGT SNOW 29 26 91 NW8 29.43R VSB 1 WCI 21  
MERRILL LGT SNOW 31 31 99 NW7 29.42R VSB 1 WCI 24  

 
 
WIZ029-030-035-036-043>047-271700-  
CENTRAL WISCONSIN  
 
CITY SKY/WX TMP DP RH WIND PRES REMARKS
 
WAUSAU SNOW 31 30 96 NW14 29.40R VSB 1/2 WCI 21  
MOSINEE SNOW 32 32 100 W12G17 29.41R VSB 1/2 WCI 23  
MARSHFIELD SNOW 30 28 92 NW13 29.44R VSB 1/2 WCI 20  
STEVENS POINT MIX PCPN 31 31 100 W12 29.43R VSB 1/2 WCI 22  
WAUPACA LGT SNOW 36 34 92 SW8 29.43R WCI 29  
WAUTOMA LGT SNOW 34 32 92 W12G20 29.46R FOG WCI 25  
WISC RAPIDS LGT SNOW 32 31 96 NW10 29.48R VSB 1 WCI 24  
CAMP DOUGLAS CLOUDY 32 32 100 W7 29.49R WCI 26  

 
 
WIZ011>013-019>022-031-037>040-048>050-271700-  
NORTHEAST WISCONSIN  
 
CITY SKY/WX TMP DP RH WIND PRES REMARKS
 
ANTIGO LGT SNOW 32 32 99 NW9 29.37R WCI 24  
SHAWANO RAIN 38 35 90 W7 29.37S WCI 32  
OCONTO NOT AVBL  
STURGEON BAY LGT RAIN 39 38 96 NW14 29.29R FOG WCI 31  
GREEN BAY LGT RAIN 42 41 96 W15 29.36R FOG  
MANITOWOC CLOUDY 45 41 87 W16G28 29.37R  
APPLETON FLURRIES 36 36 100 W17 29.38R WCI 25  
CLINTONVILLE LGT SNOW 34 34 100 W9 29.39R WCI 26  
OSHKOSH LGT RAIN 38 35 89 W10G21 29.41R WCI 31  

 
 
WIZ032>034-041-042-053>061-271700-  
SOUTHWEST WISCONSIN  
 
CITY SKY/WX TMP DP RH WIND PRES REMARKS
 
LA CROSSE LGT RAIN 40 33 76 W10 29.52R WCI 33  
SPARTA CLOUDY 35 33 92 W9 29.53R WCI 27  
VIROQUA CLOUDY 36 34 91 W7 29.52R WCI 30  
BOSCOBEL CLOUDY 40 35 83 W6 29.55R  
PRAIRIE DU CHI CLOUDY 39 35 87 W10 29.56R WCI 32  
PLATTEVILLE CLOUDY 38 37 96 W16 29.55R WCI 30  

 
 
WIZ056-057-062-063-064-067-068-271700-  
SOUTH CENTRAL WISCONSIN  
 
CITY SKY/WX TMP DP RH WIND PRES REMARKS
 
REEDSBURG LGT SNOW 34 34 100 W12G17 29.51 WCI 25  
BARABOO/DELLS LGT SNOW 33 32 97 W9 29.50R WCI 25  
LONE ROCK CLOUDY 38 34 85 W14 29.54R WCI 30  
MINERAL POINT CLOUDY 37 37 100 W13G18 29.53R WCI 29  
MADISON LGT RAIN 37 34 89 VRB7 29.51R WCI 32  
MIDDLETON CLOUDY 38 36 93 W13 29.52R WCI 30  
WATERTOWN LGT RAIN 37 37 100 W22G29 29.49R WCI 26  
MONROE CLOUDY 37 36 93 W17 29.52R WCI 28  
JANESVILLE DRIZZLE 37 37 100 W14G22 29.52R WCI 29  

 
 
WIZ051-052-058>065-066-070>072-271700-  
SOUTHEAST WISCONSIN  
 
CITY SKY/WX TMP DP RH WIND PRES REMARKS
 
MILWAUKEE CLOUDY 46 38 73 W21G33 29.46R  
WAUKESHA CLOUDY 39 36 87 W20G30 29.48R WCI 30  
MILWAUKEE/TIMM CLOUDY 43 37 81 W23G31 29.45R  
RACINE PTSUNNY 46 38 73 W18G31 29.48R  
KENOSHA CLOUDY 46 38 73 W16G35 29.49R  
FOND DU LAC LGT RAIN 38 34 85 W14G20 29.44R WCI 30  
SHEBOYGAN CLOUDY 44 41 89 W21G29 29.39R  
WEST BEND LGT RAIN 41 37 87 W21G28 29.43R  
JUNEAU LGT RAIN 36 34 93 W15G21 29.49R WCI 26  

 
 
LSZ147-162-271700-  
LAKE SUPERIOR  
 
STATION/POSITION TIME TEMP WIND PRES WAVE
 
AIR SEA DIR/SP/G HT/PER  
(UTC) (F) (DEG/KT/KT) (MB) (FT/S)  
DEVILS ISLAND 1600 26 310/ 15/ 18 999.1F  
SAXON HARBOR 1530 29 310/ 12/ 16 998.0S  

 
 
LMZ867-665-643>646-271700-  
LAKE MICHIGAN  
 
STATION/POSITION TIME TEMP WIND PRES WAVE
 
AIR SEA DIR/SP/G HT/PER  
(UTC) (F) (DEG/KT/KT) (MB) (FT/S)  
CHAMBERS ISLAND 1540 37 310/ 12/ 13 991.9F  
N MID LAKE BUOY 1550 39 37 70/ 6/ 6 992.3F 2/ 4  
NORTHPORT PIER 1540 38 330/ 11/ 14 991.5S  
KEWAUNEE LAKESHO 1600 40 280/ 14/ 20 992.8  
SHEBOYGAN LAKESH 1600 44 260/ 24/ 26 995.0R  
PORT WASHINGTON 1530 46 250/ 13/ 23 997.0R  
MILWAUKEE LAKESH 1600 44 270/ 22/ 28 N/A  
S MID LAKE BUOY 1550 44 41 260/ 17/ 21 998.6R 4/ 5  
KENOSHA LAKESH 1600 46 260/ 16/ 28 999.3  

 
 
TC - TEMPERATURE IN CELSIUS  
VSB - VISIBILITY IN STATUTE MILES  
WCI - WIND CHILL INDEX  
HX - HEAT INDEX  
 
 
 
CLICK HERE TO GO TO PREVIOUS BULLETINS.

The Nexlab WI Page Main Text Page